Time,TemperatureF,DewpointF,PressureIn,WindDirection,WindDirectionDegrees,WindSpeedMPH,WindSpeedGustMPH,Humidity,HourlyPrecipIn,Conditions,Clouds,dailyrainin,SoftwareType,DateUTC
2013-02-08 00:01:00,28.0,21.7,30.20,NW,321,0.0,0.0,77,0.00,,,0.13,meteohub,2013-02-08 08:01:00,
2013-02-08 00:06:00,28.0,21.7,30.21,NW,321,0.0,0.0,77,0.00,,,0.00,meteohub,2013-02-08 08:06:00,
2013-02-08 00:11:00,28.0,21.7,30.21,NW,321,0.0,0.0,77,0.00,,,0.00,meteohub,2013-02-08 08:11:00,
2013-02-08 00:16:00,28.0,21.7,30.21,NW,321,0.0,0.0,77,0.00,,,0.00,meteohub,2013-02-08 08:16:00,
2013-02-08 00:21:00,28.0,21.7,30.21,NW,321,0.0,0.0,77,0.00,,,0.00,meteohub,2013-02-08 08:21:00,
2013-02-08 00:26:00,28.0,21.7,30.21,NW,321,0.0,0.0,77,0.00,,,0.00,meteohub,2013-02-08 08:26:00,
2013-02-08 00:31:00,28.0,21.7,30.21,NW,321,0.0,0.0,77,0.00,,,0.00,meteohub,2013-02-08 08:31:00,
2013-02-08 00:36:00,28.0,21.7,30.21,NW,321,0.0,0.0,77,0.00,,,0.00,meteohub,2013-02-08 08:36:00,
2013-02-08 00:41:00,28.0,21.7,30.21,NW,321,0.0,0.0,77,0.00,,,0.00,meteohub,2013-02-08 08:41:00,
2013-02-08 00:46:00,28.0,21.7,30.21,NW,321,0.0,0.0,77,0.00,,,0.00,meteohub,2013-02-08 08:46:00,
2013-02-08 00:51:00,27.9,21.6,30.21,NW,321,0.0,0.0,77,0.00,,,0.00,meteohub,2013-02-08 08:51:00,
2013-02-08 00:56:00,27.9,21.6,30.21,NW,321,0.0,0.0,77,0.00,,,0.00,meteohub,2013-02-08 08:56:00,
2013-02-08 01:01:00,27.7,21.4,30.22,NW,321,0.0,0.0,77,0.00,,,0.00,meteohub,2013-02-08 09:01:00,
2013-02-08 01:06:00,27.7,21.4,30.22,NW,321,0.0,0.0,77,0.00,,,0.00,meteohub,2013-02-08 09:06:00,
2013-02-08 01:11:00,27.7,21.4,30.22,NW,321,0.0,0.0,77,0.00,,,0.00,meteohub,2013-02-08 09:11:00,
2013-02-08 01:16:00,27.5,21.2,30.22,NW,321,0.0,0.0,77,0.00,,,0.00,meteohub,2013-02-08 09:16:00,
2013-02-08 01:21:00,27.3,21.0,30.22,NW,321,0.0,0.0,77,0.00,,,0.00,meteohub,2013-02-08 09:21:00,
2013-02-08 01:26:00,27.3,21.0,30.22,NW,321,0.0,0.0,77,0.00,,,0.00,meteohub,2013-02-08 09:26:00,
2013-02-08 01:31:00,27.3,21.0,30.23,NW,321,0.0,0.0,77,0.00,,,0.00,meteohub,2013-02-08 09:31:00,
2013-02-08 01:36:00,27.3,21.0,30.23,NW,321,0.0,0.0,77,0.00,,,0.00,meteohub,2013-02-08 09:36:00,
2013-02-08 01:41:00,27.1,20.8,30.23,NW,321,0.0,0.0,77,0.00,,,0.00,meteohub,2013-02-08 09:41:00,
2013-02-08 01:46:00,27.3,21.0,30.23,NW,321,0.0,0.0,77,0.00,,,0.00,meteohub,2013-02-08 09:46:00,
2013-02-08 01:51:00,27.7,21.4,30.23,NW,321,0.0,0.0,77,0.00,,,0.00,meteohub,2013-02-08 09:51:00,
2013-02-08 01:57:00,27.9,21.2,30.23,NW,321,0.0,0.0,76,0.00,,,0.00,meteohub,2013-02-08 09:57:00,
2013-02-08 02:02:00,28.0,21.4,30.23,NW,321,0.0,0.0,76,0.00,,,0.00,meteohub,2013-02-08 10:02:00,
2013-02-08 02:07:00,28.0,21.4,30.24,NW,321,0.0,0.0,76,0.00,,,0.00,meteohub,2013-02-08 10:07:00,
2013-02-08 02:12:00,28.0,21.4,30.24,NW,321,0.0,0.0,76,0.00,,,0.00,meteohub,2013-02-08 10:12:00,
2013-02-08 02:18:00,28.0,21.4,30.24,NW,321,0.0,0.0,76,0.00,,,0.00,meteohub,2013-02-08 10:18:00,
2013-02-08 02:23:00,28.0,21.4,30.24,NW,321,0.0,0.0,76,0.00,,,0.00,meteohub,2013-02-08 10:23:00,
2013-02-08 02:28:00,28.0,21.4,30.24,NW,321,0.0,0.0,76,0.00,,,0.00,meteohub,2013-02-08 10:28:00,
2013-02-08 02:33:00,28.0,21.4,30.24,NW,321,0.0,0.0,76,0.00,,,0.00,meteohub,2013-02-08 10:33:00,
2013-02-08 02:38:00,28.2,21.6,30.24,NW,321,0.0,0.0,76,0.00,,,0.00,meteohub,2013-02-08 10:38:00,
2013-02-08 02:43:00,28.2,21.6,30.24,NW,321,0.0,0.0,76,0.00,,,0.00,meteohub,2013-02-08 10:43:00,
2013-02-08 02:48:00,28.2,21.6,30.24,NW,321,0.0,0.0,76,0.00,,,0.00,meteohub,2013-02-08 10:48:00,
2013-02-08 02:53:00,28.0,21.4,30.24,NW,321,0.0,0.0,76,0.00,,,0.00,meteohub,2013-02-08 10:53:00,
2013-02-08 02:58:00,28.0,21.4,30.24,NW,321,0.0,0.0,76,0.00,,,0.00,meteohub,2013-02-08 10:58:00,
2013-02-08 03:03:00,27.9,21.2,30.24,NW,321,0.0,0.0,76,0.00,,,0.00,meteohub,2013-02-08 11:03:00,
2013-02-08 03:08:00,27.7,21.4,30.24,NW,321,0.0,0.0,77,0.00,,,0.00,meteohub,2013-02-08 11:08:00,
2013-02-08 03:13:00,27.7,21.4,30.24,NW,321,0.0,0.0,77,0.00,,,0.00,meteohub,2013-02-08 11:13:00,
2013-02-08 03:18:00,27.5,21.2,30.24,NW,321,0.0,0.0,77,0.00,,,0.00,meteohub,2013-02-08 11:18:00,
2013-02-08 03:23:00,27.5,21.2,30.24,NW,321,0.0,0.0,77,0.00,,,0.00,meteohub,2013-02-08 11:23:00,
2013-02-08 03:28:00,27.3,21.0,30.24,NW,321,0.0,0.0,77,0.00,,,0.00,meteohub,2013-02-08 11:28:00,
2013-02-08 03:33:00,27.1,20.8,30.24,NW,321,0.0,0.0,77,0.00,,,0.00,meteohub,2013-02-08 11:33:00,
2013-02-08 03:38:00,27.1,20.8,30.24,NW,321,0.0,0.0,77,0.00,,,0.00,meteohub,2013-02-08 11:38:00,
2013-02-08 03:43:00,27.1,20.8,30.24,NW,321,0.0,0.0,77,0.00,,,0.00,meteohub,2013-02-08 11:43:00,
2013-02-08 03:48:00,27.3,21.0,30.24,NW,321,0.0,0.0,77,0.00,,,0.00,meteohub,2013-02-08 11:48:00,
2013-02-08 03:53:00,27.1,20.8,30.24,NW,321,0.0,0.0,77,0.00,,,0.00,meteohub,2013-02-08 11:53:00,
2013-02-08 03:58:00,27.1,20.8,30.25,NW,321,0.0,0.0,77,0.00,,,0.00,meteohub,2013-02-08 11:58:00,
2013-02-08 04:03:00,27.1,20.8,30.25,NW,321,0.0,0.0,77,0.00,,,0.00,meteohub,2013-02-08 12:03:00,
2013-02-08 04:08:00,27.1,20.8,30.25,NW,321,0.0,0.0,77,0.00,,,0.00,meteohub,2013-02-08 12:08:00,
2013-02-08 04:13:00,27.1,20.8,30.25,NW,321,0.0,0.0,77,0.00,,,0.00,meteohub,2013-02-08 12:13:00,
2013-02-08 04:18:00,27.1,20.8,30.25,NW,321,0.0,0.0,77,0.00,,,0.00,meteohub,2013-02-08 12:18:00,
2013-02-08 04:23:00,27.1,20.8,30.25,NW,321,0.0,0.0,77,0.00,,,0.00,meteohub,2013-02-08 12:23:00,
2013-02-08 04:28:00,27.1,20.8,30.25,NW,321,0.0,0.0,77,0.00,,,0.00,meteohub,2013-02-08 12:28:00,
2013-02-08 04:33:00,27.1,20.8,30.25,NW,321,0.0,0.0,77,0.00,,,0.00,meteohub,2013-02-08 12:33:00,
2013-02-08 04:38:00,27.1,20.8,30.26,NW,321,0.0,0.0,77,0.00,,,0.00,meteohub,2013-02-08 12:38:00,
2013-02-08 04:43:00,27.0,21.0,30.26,NW,321,0.0,0.0,78,0.00,,,0.00,meteohub,2013-02-08 12:43:00,
2013-02-08 04:48:00,26.8,20.8,30.26,NW,321,0.0,0.0,78,0.00,,,0.00,meteohub,2013-02-08 12:48:00,
2013-02-08 04:53:00,26.8,20.8,30.26,NW,321,0.0,0.0,78,0.00,,,0.00,meteohub,2013-02-08 12:53:00,
2013-02-08 04:58:00,26.8,20.8,30.26,NW,321,0.0,0.0,78,0.00,,,0.00,meteohub,2013-02-08 12:58:00,
2013-02-08 05:03:00,26.8,20.8,30.26,NW,321,0.0,0.0,78,0.00,,,0.00,meteohub,2013-02-08 13:03:00,
2013-02-08 05:08:00,26.8,20.8,30.27,NW,321,0.0,0.0,78,0.00,,,0.00,meteohub,2013-02-08 13:08:00,
2013-02-08 05:13:00,26.8,20.8,30.27,NW,321,0.0,0.0,78,0.00,,,0.00,meteohub,2013-02-08 13:13:00,
2013-02-08 05:18:00,26.8,20.8,30.27,NW,321,0.0,0.0,78,0.00,,,0.00,meteohub,2013-02-08 13:18:00,
2013-02-08 05:24:00,26.8,20.8,30.27,NW,321,0.0,0.0,78,0.00,,,0.00,meteohub,2013-02-08 13:24:00,
2013-02-08 05:29:00,26.8,20.8,30.27,NW,321,0.0,0.0,78,0.00,,,0.00,meteohub,2013-02-08 13:29:00,
2013-02-08 05:34:00,26.4,20.5,30.27,NW,321,0.0,0.0,78,0.00,,,0.00,meteohub,2013-02-08 13:34:00,
2013-02-08 05:39:00,26.2,20.7,30.27,NW,321,0.0,0.0,79,0.00,,,0.00,meteohub,2013-02-08 13:39:00,
2013-02-08 05:44:00,26.1,20.5,30.27,NW,321,0.0,0.0,79,0.00,,,0.00,meteohub,2013-02-08 13:44:00,
2013-02-08 05:49:00,26.1,20.5,30.28,NW,321,0.0,0.0,79,0.00,,,0.00,meteohub,2013-02-08 13:49:00,
2013-02-08 05:54:00,26.1,20.5,30.28,NW,321,0.0,0.0,79,0.00,,,0.00,meteohub,2013-02-08 13:54:00,
2013-02-08 05:59:00,25.9,20.3,30.28,NW,321,0.0,0.0,79,0.00,,,0.00,meteohub,2013-02-08 13:59:00,
2013-02-08 06:04:00,25.9,20.3,30.28,NW,321,0.0,0.0,79,0.00,,,0.00,meteohub,2013-02-08 14:04:00,
2013-02-08 06:09:00,25.9,20.3,30.28,NW,321,0.0,0.0,79,0.00,,,0.00,meteohub,2013-02-08 14:09:00,
2013-02-08 06:14:00,25.9,20.3,30.28,NW,321,0.0,0.0,79,0.00,,,0.00,meteohub,2013-02-08 14:14:00,
2013-02-08 06:19:00,25.7,20.1,30.29,NW,321,0.0,0.0,79,0.00,,,0.00,meteohub,2013-02-08 14:19:00,
2013-02-08 06:24:00,25.5,19.9,30.29,NW,321,0.0,0.0,79,0.00,,,0.00,meteohub,2013-02-08 14:24:00,
2013-02-08 06:29:00,25.5,19.9,30.29,NW,321,0.0,0.0,79,0.00,,,0.00,meteohub,2013-02-08 14:29:00,
2013-02-08 06:34:00,25.5,19.9,30.29,NW,321,0.0,0.0,79,0.00,,,0.00,meteohub,2013-02-08 14:34:00,
2013-02-08 06:39:00,25.7,20.1,30.29,NW,321,0.0,0.0,79,0.00,,,0.00,meteohub,2013-02-08 14:39:00,
2013-02-08 06:44:00,26.1,20.1,30.29,NW,321,0.0,0.0,78,0.00,,,0.00,meteohub,2013-02-08 14:44:00,
2013-02-08 06:49:00,26.2,20.3,30.29,NW,321,0.0,0.0,78,0.00,,,0.00,meteohub,2013-02-08 14:49:00,
2013-02-08 06:54:00,26.4,20.1,30.29,NW,321,0.0,0.0,77,0.00,,,0.00,meteohub,2013-02-08 14:54:00,
2013-02-08 06:59:00,27.0,20.7,30.29,NW,321,0.0,0.0,77,0.00,,,0.00,meteohub,2013-02-08 14:59:00,
2013-02-08 07:04:00,27.1,20.7,30.29,NW,321,0.0,0.0,76,0.00,,,0.00,meteohub,2013-02-08 15:04:00,
2013-02-08 07:09:00,27.3,20.8,30.29,NW,321,0.0,0.0,76,0.00,,,0.00,meteohub,2013-02-08 15:09:00,
2013-02-08 07:14:00,27.7,21.0,30.29,NW,321,0.0,0.0,76,0.00,,,0.00,meteohub,2013-02-08 15:14:00,
2013-02-08 07:19:00,27.9,21.2,30.29,NW,321,0.0,0.0,76,0.00,,,0.00,meteohub,2013-02-08 15:19:00,
2013-02-08 07:24:00,27.9,21.2,30.29,NW,321,0.0,0.0,76,0.00,,,0.00,meteohub,2013-02-08 15:24:00,
2013-02-08 07:29:00,28.0,21.4,30.29,NW,321,0.0,0.0,76,0.00,,,0.00,meteohub,2013-02-08 15:29:00,
2013-02-08 07:34:00,28.0,21.2,30.29,NW,321,0.0,0.0,75,0.00,,,0.00,meteohub,2013-02-08 15:34:00,
2013-02-08 07:39:00,28.0,21.2,30.29,NW,321,0.0,0.0,75,0.00,,,0.00,meteohub,2013-02-08 15:39:00,
2013-02-08 07:44:00,28.0,21.2,30.28,NW,321,0.0,0.0,75,0.00,,,0.00,meteohub,2013-02-08 15:44:00,
2013-02-08 07:49:00,28.0,21.4,30.29,NW,321,0.0,0.0,76,0.00,,,0.00,meteohub,2013-02-08 15:49:00,
2013-02-08 07:54:00,28.0,21.4,30.29,NW,321,0.0,0.0,76,0.00,,,0.00,meteohub,2013-02-08 15:54:00,
2013-02-08 07:59:00,27.9,21.2,30.29,NW,321,0.0,0.0,76,0.00,,,0.00,meteohub,2013-02-08 15:59:00,
2013-02-08 08:04:00,27.9,21.2,30.29,NW,321,0.0,0.0,76,0.00,,,0.00,meteohub,2013-02-08 16:04:00,
2013-02-08 08:09:00,27.7,21.0,30.30,NW,321,0.0,0.0,76,0.00,,,0.00,meteohub,2013-02-08 16:09:00,
2013-02-08 08:14:00,27.9,21.2,30.30,NW,321,0.0,0.0,76,0.00,,,0.00,meteohub,2013-02-08 16:14:00,
2013-02-08 08:19:00,28.4,21.7,30.30,NW,321,0.0,0.0,76,0.00,,,0.00,meteohub,2013-02-08 16:19:00,
2013-02-08 08:24:00,28.8,22.1,30.30,NW,321,0.0,0.0,76,0.00,,,0.00,meteohub,2013-02-08 16:24:00,
2013-02-08 08:29:00,29.5,22.8,30.31,NW,321,0.0,0.0,76,0.00,,,0.00,meteohub,2013-02-08 16:29:00,
2013-02-08 08:34:00,30.2,23.2,30.31,NW,321,0.0,0.0,75,0.00,,,0.00,meteohub,2013-02-08 16:34:00,
2013-02-08 08:39:00,30.7,23.7,30.31,NW,321,0.0,0.0,75,0.00,,,0.00,meteohub,2013-02-08 16:39:00,
2013-02-08 08:44:00,31.5,24.4,30.31,NW,321,0.0,0.0,75,0.00,,,0.00,meteohub,2013-02-08 16:44:00,
2013-02-08 08:49:00,32.2,25.2,30.31,NW,321,0.0,0.0,75,0.00,,,0.00,meteohub,2013-02-08 16:49:00,
2013-02-08 08:54:00,32.5,25.5,30.31,NW,321,0.0,0.0,75,0.00,,,0.00,meteohub,2013-02-08 16:54:00,
2013-02-08 08:59:00,32.7,25.7,30.31,NW,321,0.0,0.0,75,0.00,,,0.00,meteohub,2013-02-08 16:59:00,
2013-02-08 09:04:00,33.3,26.2,30.31,NW,321,0.0,1.0,75,0.00,,,0.00,meteohub,2013-02-08 17:04:00,
2013-02-08 09:10:00,33.4,26.8,30.31,NW,321,0.0,1.0,76,0.00,,,0.00,meteohub,2013-02-08 17:10:00,
2013-02-08 09:15:00,33.4,27.0,30.31,NW,321,0.0,0.0,77,0.00,,,0.00,meteohub,2013-02-08 17:15:00,
2013-02-08 09:20:00,33.1,27.0,30.31,NW,321,0.0,0.0,78,0.00,,,0.00,meteohub,2013-02-08 17:20:00,
2013-02-08 09:25:00,32.9,26.8,30.31,NW,321,0.0,1.0,78,0.00,,,0.00,meteohub,2013-02-08 17:25:00,
2013-02-08 09:30:00,33.1,26.6,30.31,NW,321,0.0,2.0,77,0.00,,,0.00,meteohub,2013-02-08 17:30:00,
2013-02-08 09:35:00,33.1,26.6,30.31,NW,321,0.0,2.0,77,0.00,,,0.00,meteohub,2013-02-08 17:35:00,
2013-02-08 09:40:00,33.3,26.6,30.32,NW,321,0.0,2.0,76,0.00,,,0.00,meteohub,2013-02-08 17:40:00,
2013-02-08 09:45:00,33.4,26.8,30.32,NW,321,0.0,0.0,76,0.00,,,0.00,meteohub,2013-02-08 17:45:00,
2013-02-08 09:50:00,33.6,26.8,30.32,NW,321,0.0,0.0,76,0.00,,,0.00,meteohub,2013-02-08 17:50:00,
2013-02-08 09:55:00,34.0,27.1,30.32,NW,321,0.0,0.0,76,0.00,,,0.00,meteohub,2013-02-08 17:55:00,
2013-02-08 10:00:00,34.2,27.1,30.32,NW,321,0.0,0.0,75,0.00,,,0.00,meteohub,2013-02-08 18:00:00,
2013-02-08 10:05:00,34.3,27.3,30.33,NW,321,0.0,0.0,75,0.00,,,0.00,meteohub,2013-02-08 18:05:00,
2013-02-08 10:10:00,34.3,27.3,30.33,NW,321,0.0,0.0,75,0.00,,,0.00,meteohub,2013-02-08 18:10:00,
2013-02-08 10:15:00,34.5,27.5,30.33,NW,321,0.0,0.0,75,0.00,,,0.00,meteohub,2013-02-08 18:15:00,
2013-02-08 10:20:00,34.9,27.5,30.33,NW,317,0.0,2.0,74,0.00,,,0.00,meteohub,2013-02-08 18:20:00,
2013-02-08 10:25:00,34.9,27.7,30.33,NW,317,0.0,2.0,75,0.00,,,0.00,meteohub,2013-02-08 18:25:00,
2013-02-08 10:31:00,35.2,27.9,30.33,NW,317,0.0,2.0,74,0.00,,,0.00,meteohub,2013-02-08 18:31:00,
2013-02-08 10:36:00,36.0,28.4,30.33,NW,317,2.0,2.0,74,0.00,,,0.00,meteohub,2013-02-08 18:36:00,
2013-02-08 10:41:00,36.7,28.8,30.33,West,266,0.0,2.0,73,0.00,,,0.00,meteohub,2013-02-08 18:41:00,
2013-02-08 10:46:00,37.2,29.3,30.33,West,266,0.0,3.0,73,0.00,,,0.00,meteohub,2013-02-08 18:46:00,
2013-02-08 10:51:00,37.6,29.7,30.33,West,265,0.0,3.0,73,0.00,,,0.00,meteohub,2013-02-08 18:51:00,
2013-02-08 10:56:00,37.8,30.2,30.33,West,265,0.0,2.0,74,0.00,,,0.00,meteohub,2013-02-08 18:56:00,
2013-02-08 11:01:00,38.1,30.6,30.33,West,265,0.0,2.0,74,0.00,,,0.00,meteohub,2013-02-08 19:01:00,
2013-02-08 11:06:00,38.5,31.3,30.33,NW,324,3.0,4.0,75,0.00,,,0.00,meteohub,2013-02-08 19:06:00,
2013-02-08 11:11:00,38.7,32.0,30.33,WNW,296,0.0,4.0,77,0.00,,,0.00,meteohub,2013-02-08 19:11:00,
2013-02-08 11:16:00,38.7,32.7,30.33,West,269,0.0,4.0,79,0.00,,,0.00,meteohub,2013-02-08 19:16:00,
2013-02-08 11:21:00,38.7,33.1,30.33,West,271,0.0,4.0,80,0.00,,,0.00,meteohub,2013-02-08 19:21:00,
2013-02-08 11:26:00,38.5,32.9,30.33,West,259,0.0,3.0,80,0.00,,,0.00,meteohub,2013-02-08 19:26:00,
2013-02-08 11:31:00,38.5,32.9,30.33,WSW,255,0.0,3.0,80,0.00,,,0.00,meteohub,2013-02-08 19:31:00,
2013-02-08 11:36:00,38.5,32.9,30.32,SW,227,4.0,4.0,80,0.00,,,0.00,meteohub,2013-02-08 19:36:00,
2013-02-08 11:41:00,38.5,32.9,30.33,WSW,243,0.0,5.0,80,0.00,,,0.00,meteohub,2013-02-08 19:41:00,
2013-02-08 11:46:00,38.7,32.7,30.32,West,276,1.0,5.0,79,0.00,,,0.00,meteohub,2013-02-08 19:46:00,
2013-02-08 11:51:00,38.8,33.3,30.32,West,273,0.0,4.0,80,0.00,,,0.00,meteohub,2013-02-08 19:51:00,
2013-02-08 11:56:00,39.0,33.4,30.32,WSW,258,0.0,4.0,80,0.00,,,0.00,meteohub,2013-02-08 19:56:00,
2013-02-08 12:01:00,38.8,33.4,30.32,SW,229,0.0,4.0,81,0.00,,,0.00,meteohub,2013-02-08 20:01:00,
2013-02-08 12:06:00,39.2,33.8,30.31,NNW,331,2.0,3.0,81,0.00,,,0.00,meteohub,2013-02-08 20:06:00,
2013-02-08 12:11:00,39.4,34.3,30.31,West,268,0.0,3.0,82,0.00,,,0.00,meteohub,2013-02-08 20:11:00,
2013-02-08 12:16:00,39.6,34.9,30.31,NW,306,0.0,4.0,83,0.00,,,0.00,meteohub,2013-02-08 20:16:00,
2013-02-08 12:21:00,39.7,35.1,30.31,NW,323,0.0,4.0,83,0.00,,,0.00,meteohub,2013-02-08 20:21:00,
2013-02-08 12:26:00,40.1,35.6,30.31,NW,318,0.0,5.0,84,0.00,,,0.00,meteohub,2013-02-08 20:26:00,
2013-02-08 12:32:00,40.3,36.1,30.31,WSW,244,2.0,5.0,85,0.00,,,0.00,meteohub,2013-02-08 20:32:00,
2013-02-08 12:37:00,40.3,36.1,30.30,SW,225,1.0,4.0,85,0.00,,,0.00,meteohub,2013-02-08 20:37:00,
2013-02-08 12:42:00,40.5,36.3,30.30,West,262,2.0,4.0,85,0.00,,,0.00,meteohub,2013-02-08 20:42:00,
2013-02-08 12:47:00,40.6,36.5,30.30,WNW,284,0.0,4.0,85,0.00,,,0.00,meteohub,2013-02-08 20:47:00,
2013-02-08 12:52:00,41.2,37.0,30.30,West,275,0.0,4.0,85,0.00,,,0.00,meteohub,2013-02-08 20:52:00,
2013-02-08 12:57:00,41.9,37.8,30.30,West,271,0.0,5.0,85,0.00,,,0.00,meteohub,2013-02-08 20:57:00,
2013-02-08 13:02:00,41.9,37.8,30.30,WSW,238,0.0,5.0,85,0.00,,,0.00,meteohub,2013-02-08 21:02:00,
2013-02-08 13:07:00,42.8,38.3,30.30,West,271,4.0,5.0,84,0.00,,,0.00,meteohub,2013-02-08 21:07:00,
2013-02-08 13:12:00,42.8,37.8,30.30,West,273,4.0,5.0,82,0.00,,,0.00,meteohub,2013-02-08 21:12:00,
2013-02-08 13:17:00,42.8,37.9,30.30,WSW,239,1.0,5.0,83,0.00,,,0.00,meteohub,2013-02-08 21:17:00,
2013-02-08 13:22:00,43.3,38.3,30.30,SSW,213,0.0,6.0,82,0.00,,,0.00,meteohub,2013-02-08 21:22:00,
2013-02-08 13:27:00,43.2,37.8,30.30,NW,324,0.0,6.0,81,0.00,,,0.00,meteohub,2013-02-08 21:27:00,
2013-02-08 13:32:00,44.1,37.9,30.30,SSE,153,0.0,7.0,79,0.00,,,0.00,meteohub,2013-02-08 21:32:00,
2013-02-08 13:37:00,45.0,37.9,30.29,NW,321,3.0,7.0,76,0.00,,,0.00,meteohub,2013-02-08 21:37:00,
2013-02-08 13:42:00,45.0,37.6,30.29,NE,51,0.0,7.0,75,0.00,,,0.00,meteohub,2013-02-08 21:42:00,
2013-02-08 13:47:00,44.4,37.6,30.29,NW,314,4.0,7.0,77,0.00,,,0.00,meteohub,2013-02-08 21:47:00,
2013-02-08 13:52:00,44.2,37.6,30.29,West,279,0.0,5.0,77,0.00,,,0.00,meteohub,2013-02-08 21:52:00,
2013-02-08 13:57:00,43.5,36.9,30.29,West,281,1.0,5.0,77,0.00,,,0.00,meteohub,2013-02-08 21:57:00,
2013-02-08 14:02:00,43.5,36.5,30.30,NW,310,0.0,5.0,76,0.00,,,0.00,meteohub,2013-02-08 22:02:00,
2013-02-08 14:08:00,43.7,37.0,30.29,West,281,0.0,5.0,77,0.00,,,0.00,meteohub,2013-02-08 22:08:00,
2013-02-08 14:13:00,44.1,36.7,30.29,SW,215,0.0,6.0,75,0.00,,,0.00,meteohub,2013-02-08 22:13:00,
2013-02-08 14:18:00,44.1,36.0,30.29,SW,225,0.0,6.0,73,0.00,,,0.00,meteohub,2013-02-08 22:18:00,
2013-02-08 14:23:00,44.1,35.2,30.29,WSW,253,0.0,4.0,71,0.00,,,0.00,meteohub,2013-02-08 22:23:00,
2013-02-08 14:28:00,44.1,35.6,30.29,West,268,0.0,4.0,72,0.00,,,0.00,meteohub,2013-02-08 22:28:00,
2013-02-08 14:33:00,44.2,35.1,30.29,West,281,3.0,5.0,70,0.00,,,0.00,meteohub,2013-02-08 22:33:00,
2013-02-08 14:38:00,44.4,35.6,30.29,NW,307,0.0,5.0,71,0.00,,,0.00,meteohub,2013-02-08 22:38:00,
2013-02-08 14:43:00,44.1,35.2,30.29,WNW,296,0.0,4.0,71,0.00,,,0.00,meteohub,2013-02-08 22:43:00,
2013-02-08 14:48:00,43.9,35.4,30.30,West,261,0.0,4.0,72,0.00,,,0.00,meteohub,2013-02-08 22:48:00,
2013-02-08 14:53:00,43.9,35.8,30.30,West,265,0.0,4.0,73,0.00,,,0.00,meteohub,2013-02-08 22:53:00,
2013-02-08 14:58:00,43.5,35.1,30.30,NE,46,0.0,4.0,72,0.00,,,0.00,meteohub,2013-02-08 22:58:00,
2013-02-08 15:03:00,43.3,34.9,30.30,West,269,0.0,4.0,72,0.00,,,0.00,meteohub,2013-02-08 23:03:00,
2013-02-08 15:08:00,43.3,35.6,30.30,West,270,0.0,4.0,74,0.00,,,0.00,meteohub,2013-02-08 23:08:00,
2013-02-08 15:13:00,43.3,35.2,30.30,West,272,0.0,6.0,73,0.00,,,0.00,meteohub,2013-02-08 23:13:00,
2013-02-08 15:19:00,43.3,35.6,30.30,West,271,0.0,6.0,74,0.00,,,0.00,meteohub,2013-02-08 23:19:00,
2013-02-08 15:24:00,43.2,35.8,30.30,WSW,244,0.0,2.0,75,0.00,,,0.00,meteohub,2013-02-08 23:24:00,
2013-02-08 15:29:00,43.2,35.8,30.30,West,259,0.0,2.0,75,0.00,,,0.00,meteohub,2013-02-08 23:29:00,
2013-02-08 15:34:00,43.2,36.1,30.30,West,264,0.0,4.0,76,0.00,,,0.00,meteohub,2013-02-08 23:34:00,
2013-02-08 15:39:00,43.2,36.1,30.30,West,275,0.0,4.0,76,0.00,,,0.00,meteohub,2013-02-08 23:39:00,
2013-02-08 15:44:00,43.2,35.4,30.30,West,275,0.0,4.0,74,0.00,,,0.00,meteohub,2013-02-08 23:44:00,
2013-02-08 15:49:00,43.0,35.6,30.30,WNW,294,0.0,4.0,75,0.00,,,0.00,meteohub,2013-02-08 23:49:00,
2013-02-08 15:54:00,43.0,35.6,30.30,NW,311,0.0,4.0,75,0.00,,,0.00,meteohub,2013-02-08 23:54:00,
2013-02-08 15:59:00,43.0,35.6,30.30,NW,311,0.0,4.0,75,0.00,,,0.00,meteohub,2013-02-08 23:59:00,
2013-02-08 16:04:00,42.8,35.4,30.30,NW,322,0.0,4.0,75,0.00,,,0.00,meteohub,2013-02-09 00:04:00,
2013-02-08 16:09:00,42.6,35.6,30.30,NW,306,0.0,3.0,76,0.00,,,0.00,meteohub,2013-02-09 00:09:00,
2013-02-08 16:14:00,42.6,35.2,30.30,NNW,333,0.0,2.0,75,0.00,,,0.00,meteohub,2013-02-09 00:14:00,
2013-02-08 16:19:00,42.4,35.4,30.30,NNW,333,0.0,3.0,76,0.00,,,0.00,meteohub,2013-02-09 00:19:00,
2013-02-08 16:24:00,42.3,35.2,30.30,NNW,333,0.0,3.0,76,0.00,,,0.00,meteohub,2013-02-09 00:24:00,
2013-02-08 16:29:00,42.1,35.1,30.30,NNW,333,0.0,3.0,76,0.00,,,0.00,meteohub,2013-02-09 00:29:00,
2013-02-08 16:34:00,41.9,35.2,30.30,NNW,333,0.0,1.0,77,0.00,,,0.00,meteohub,2013-02-09 00:34:00,
2013-02-08 16:39:00,41.9,34.9,30.30,NNW,333,0.0,1.0,76,0.00,,,0.00,meteohub,2013-02-09 00:39:00,
2013-02-08 16:44:00,41.7,34.7,30.30,NNW,333,0.0,1.0,76,0.00,,,0.00,meteohub,2013-02-09 00:44:00,
2013-02-08 16:49:00,41.7,35.4,30.30,NNW,333,0.0,1.0,78,0.00,,,0.00,meteohub,2013-02-09 00:49:00,
2013-02-08 16:54:00,41.5,34.9,30.30,NNW,333,0.0,1.0,77,0.00,,,0.00,meteohub,2013-02-09 00:54:00,
2013-02-08 16:59:00,41.5,34.9,30.30,NNW,333,0.0,1.0,77,0.00,,,0.00,meteohub,2013-02-09 00:59:00,
2013-02-08 17:04:00,41.4,34.7,30.30,NW,312,0.0,1.0,77,0.00,,,0.00,meteohub,2013-02-09 01:04:00,
2013-02-08 17:09:00,41.2,35.2,30.30,NW,312,0.0,1.0,79,0.00,,,0.00,meteohub,2013-02-09 01:09:00,
2013-02-08 17:14:00,41.2,35.2,30.30,WNW,287,0.0,1.0,79,0.00,,,0.00,meteohub,2013-02-09 01:14:00,
2013-02-08 17:19:00,40.8,35.1,30.30,WNW,287,0.0,3.0,80,0.00,,,0.00,meteohub,2013-02-09 01:19:00,
2013-02-08 17:24:00,40.6,34.9,30.30,WNW,287,0.0,3.0,80,0.00,,,0.00,meteohub,2013-02-09 01:24:00,
2013-02-08 17:29:00,40.5,35.1,30.30,WNW,287,0.0,3.0,81,0.00,,,0.00,meteohub,2013-02-09 01:29:00,
2013-02-08 17:34:00,40.3,34.9,30.30,WNW,287,0.0,1.0,81,0.00,,,0.00,meteohub,2013-02-09 01:34:00,
2013-02-08 17:39:00,40.3,35.2,30.30,WNW,287,0.0,1.0,82,0.00,,,0.00,meteohub,2013-02-09 01:39:00,
2013-02-08 17:44:00,39.9,34.9,30.30,WNW,287,0.0,0.0,82,0.00,,,0.00,meteohub,2013-02-09 01:44:00,
2013-02-08 17:50:00,39.9,35.2,30.30,WNW,287,0.0,0.0,83,0.00,,,0.00,meteohub,2013-02-09 01:50:00,
2013-02-08 17:55:00,39.7,35.2,30.30,WNW,287,0.0,0.0,84,0.00,,,0.00,meteohub,2013-02-09 01:55:00,
2013-02-08 18:00:00,39.6,35.1,30.30,WNW,287,0.0,0.0,84,0.00,,,0.00,meteohub,2013-02-09 02:00:00,
2013-02-08 18:05:00,39.4,34.9,30.30,WNW,287,0.0,0.0,84,0.00,,,0.00,meteohub,2013-02-09 02:05:00,
2013-02-08 18:10:00,39.0,34.5,30.30,WNW,287,0.0,0.0,84,0.00,,,0.00,meteohub,2013-02-09 02:10:00,
2013-02-08 18:15:00,38.8,34.3,30.30,WNW,287,0.0,0.0,84,0.00,,,0.00,meteohub,2013-02-09 02:15:00,
2013-02-08 18:20:00,38.7,35.8,30.30,WNW,287,0.0,0.0,89,0.00,,,0.00,meteohub,2013-02-09 02:20:00,
2013-02-08 18:25:00,38.7,34.5,30.30,WNW,287,0.0,0.0,85,0.00,,,0.00,meteohub,2013-02-09 02:25:00,
2013-02-08 18:30:00,38.5,34.3,30.30,WNW,287,0.0,0.0,85,0.00,,,0.00,meteohub,2013-02-09 02:30:00,
2013-02-08 18:35:00,38.3,34.2,30.30,WNW,287,0.0,0.0,85,0.00,,,0.00,meteohub,2013-02-09 02:35:00,
2013-02-08 18:40:00,38.1,34.0,30.29,WNW,287,0.0,0.0,85,0.00,,,0.00,meteohub,2013-02-09 02:40:00,
2013-02-08 18:45:00,38.1,34.0,30.30,WNW,287,0.0,0.0,85,0.00,,,0.00,meteohub,2013-02-09 02:45:00,
2013-02-08 18:50:00,37.9,33.8,30.30,WNW,287,0.0,0.0,85,0.00,,,0.00,meteohub,2013-02-09 02:50:00,
2013-02-08 18:55:00,37.9,33.8,30.30,WNW,287,0.0,0.0,85,0.00,,,0.00,meteohub,2013-02-09 02:55:00,
2013-02-08 19:00:00,37.8,33.6,30.30,WNW,287,0.0,2.0,85,0.00,,,0.00,meteohub,2013-02-09 03:00:00,
2013-02-08 19:05:00,37.8,33.6,30.30,WNW,287,0.0,2.0,85,0.00,,,0.00,meteohub,2013-02-09 03:05:00,
2013-02-08 19:10:00,37.6,33.4,30.30,WNW,287,0.0,2.0,85,0.00,,,0.00,meteohub,2013-02-09 03:10:00,
2013-02-08 19:15:00,37.6,33.4,30.30,WNW,287,0.0,0.0,85,0.00,,,0.00,meteohub,2013-02-09 03:15:00,
2013-02-08 19:20:00,37.6,33.4,30.30,WNW,287,0.0,0.0,85,0.00,,,0.00,meteohub,2013-02-09 03:20:00,
2013-02-08 19:25:00,37.4,33.3,30.30,WNW,287,0.0,0.0,85,0.00,,,0.00,meteohub,2013-02-09 03:25:00,
2013-02-08 19:30:00,37.4,33.1,30.30,WNW,287,0.0,0.0,84,0.00,,,0.00,meteohub,2013-02-09 03:30:00,
2013-02-08 20:32:00,36.7,32.0,30.31,WNW,287,0.0,0.0,83,0.00,,,0.00,meteohub,2013-02-09 04:32:00,
2013-02-08 20:42:00,36.7,31.6,30.31,WNW,287,0.0,0.0,82,0.00,,,0.00,meteohub,2013-02-09 04:42:00,
2013-02-08 20:47:00,36.7,31.6,30.31,WNW,287,0.0,0.0,82,0.00,,,0.00,meteohub,2013-02-09 04:47:00,
2013-02-08 20:52:00,36.7,31.6,30.31,WNW,287,0.0,0.0,82,0.00,,,0.00,meteohub,2013-02-09 04:52:00,
2013-02-08 20:57:00,36.7,31.6,30.31,WNW,287,0.0,0.0,82,0.00,,,0.00,meteohub,2013-02-09 04:57:00,
2013-02-08 21:00:00,36.7,31.6,30.31,WNW,287,0.0,0.0,82,0.00,,,0.00,meteohub,2013-02-09 05:00:00,
2013-02-08 21:05:00,36.7,31.5,30.31,WNW,287,0.0,0.0,81,0.00,,,0.00,meteohub,2013-02-09 05:05:00,
2013-02-08 21:10:00,36.5,31.3,30.31,WNW,287,0.0,0.0,81,0.00,,,0.00,meteohub,2013-02-09 05:10:00,
2013-02-08 21:15:00,36.5,31.3,30.31,WNW,287,0.0,0.0,81,0.00,,,0.00,meteohub,2013-02-09 05:15:00,
2013-02-08 21:20:00,36.3,31.1,30.31,WNW,287,0.0,0.0,81,0.00,,,0.00,meteohub,2013-02-09 05:20:00,
2013-02-08 21:25:00,36.3,31.1,30.31,WNW,287,0.0,0.0,81,0.00,,,0.00,meteohub,2013-02-09 05:25:00,
2013-02-08 21:30:00,36.3,31.1,30.31,WNW,287,0.0,0.0,81,0.00,,,0.00,meteohub,2013-02-09 05:30:00,
2013-02-08 21:36:00,36.3,31.1,30.30,WNW,287,0.0,0.0,81,0.00,,,0.00,meteohub,2013-02-09 05:36:00,
2013-02-08 21:41:00,36.3,30.7,30.30,WNW,287,0.0,0.0,80,0.00,,,0.00,meteohub,2013-02-09 05:41:00,
2013-02-08 21:46:00,36.3,30.7,30.30,WNW,287,0.0,0.0,80,0.00,,,0.00,meteohub,2013-02-09 05:46:00,
2013-02-08 21:51:00,36.1,30.6,30.30,WNW,287,0.0,0.0,80,0.00,,,0.00,meteohub,2013-02-09 05:51:00,
2013-02-08 21:56:00,36.1,30.6,30.30,WNW,287,0.0,0.0,80,0.00,,,0.00,meteohub,2013-02-09 05:56:00,
2013-02-08 22:01:00,36.1,30.6,30.30,WNW,287,0.0,0.0,80,0.00,,,0.00,meteohub,2013-02-09 06:01:00,
2013-02-08 22:06:00,36.0,30.4,30.30,WNW,287,0.0,0.0,80,0.00,,,0.00,meteohub,2013-02-09 06:06:00,
2013-02-08 22:11:00,36.0,30.4,30.30,WNW,287,0.0,0.0,80,0.00,,,0.00,meteohub,2013-02-09 06:11:00,
2013-02-08 22:16:00,36.0,30.4,30.31,WNW,287,0.0,0.0,80,0.00,,,0.00,meteohub,2013-02-09 06:16:00,
2013-02-08 22:21:00,36.0,30.4,30.31,WNW,287,0.0,0.0,80,0.00,,,0.00,meteohub,2013-02-09 06:21:00,
2013-02-08 22:26:00,35.8,29.8,30.31,WNW,287,0.0,0.0,79,0.00,,,0.00,meteohub,2013-02-09 06:26:00,
2013-02-08 22:31:00,35.8,29.8,30.31,WNW,287,0.0,0.0,79,0.00,,,0.00,meteohub,2013-02-09 06:31:00,
2013-02-08 22:36:00,35.8,29.8,30.31,WNW,287,0.0,0.0,79,0.00,,,0.00,meteohub,2013-02-09 06:36:00,
2013-02-08 22:41:00,35.8,29.8,30.31,WNW,287,0.0,0.0,79,0.00,,,0.00,meteohub,2013-02-09 06:41:00,
2013-02-08 22:46:00,35.8,29.8,30.31,WNW,287,0.0,0.0,79,0.00,,,0.00,meteohub,2013-02-09 06:46:00,
2013-02-08 22:51:00,35.8,29.8,30.31,WNW,287,0.0,0.0,79,0.00,,,0.00,meteohub,2013-02-09 06:51:00,
2013-02-08 22:56:00,35.8,29.8,30.31,WNW,287,0.0,0.0,79,0.00,,,0.00,meteohub,2013-02-09 06:56:00,
2013-02-08 23:01:00,35.8,29.7,30.31,WNW,287,0.0,0.0,78,0.00,,,0.00,meteohub,2013-02-09 07:01:00,
2013-02-08 23:06:00,35.8,29.7,30.31,WNW,287,0.0,0.0,78,0.00,,,0.00,meteohub,2013-02-09 07:06:00,
2013-02-08 23:11:00,35.8,29.7,30.30,WNW,287,0.0,0.0,78,0.00,,,0.00,meteohub,2013-02-09 07:11:00,
2013-02-08 23:16:00,35.8,29.7,30.30,WNW,287,0.0,0.0,78,0.00,,,0.00,meteohub,2013-02-09 07:16:00,
2013-02-08 23:21:00,35.8,29.7,30.30,WNW,287,0.0,0.0,78,0.00,,,0.00,meteohub,2013-02-09 07:21:00,
2013-02-08 23:26:00,35.8,29.7,30.30,WNW,287,0.0,0.0,78,0.00,,,0.00,meteohub,2013-02-09 07:26:00,
2013-02-08 23:31:00,35.6,29.5,30.30,WNW,287,0.0,0.0,78,0.00,,,0.00,meteohub,2013-02-09 07:31:00,
2013-02-08 23:36:00,35.6,29.5,30.30,WNW,287,0.0,0.0,78,0.00,,,0.00,meteohub,2013-02-09 07:36:00,
2013-02-08 23:41:00,35.6,29.5,30.30,WNW,287,0.0,0.0,78,0.00,,,0.00,meteohub,2013-02-09 07:41:00,
2013-02-08 23:46:00,35.4,29.3,30.30,WNW,287,0.0,0.0,78,0.00,,,0.00,meteohub,2013-02-09 07:46:00,
2013-02-08 23:51:00,35.4,29.3,30.30,WNW,287,0.0,0.0,78,0.00,,,0.00,meteohub,2013-02-09 07:51:00,
2013-02-08 23:56:00,35.4,29.3,30.30,WNW,287,0.0,0.0,78,0.00,,,0.00,meteohub,2013-02-09 07:56:00,